GSAT0202 (PRN E14)

Last updated on Sun Jul 21 2024 00:03:08 GMT+0000 (Coordinated Universal Time)

1 40129U 14050B 24201.14612638 -.00000055 00000+0 00000+0 0 9995 2 40129 49.6431 300.8574 1611241 153.3099 216.0201 1.85520069 67537

Satellite not in orbit

GSAT0202 (PRN E14)